• In Netherlands
  • List of Countries
  • For 7 days
  • Water Temperature
  • Satellite Maps
  • Weather Map
  • Weather Widgets
  • user-avatar
    Login

    Hourly Weather Santa Fe

    Today, 25 March, Saturday

    Time Temperature Precipitation Wind Pressure Humidity
    00:00 +22°C° 0 mm 3 mps 757 mmHg 79%
    01:00 +21°C° 0 mm 3 mps 757 mmHg 82%
    02:00 +21°C° 0 mm 3 mps 757 mmHg 84%
    03:00 +21°C° 0 mm 3 mps 757 mmHg 86%
    04:00 +20°C° 0 mm 3 mps 757 mmHg 88%
    05:00 +20°C° 0 mm 2 mps 757 mmHg 90%
    06:00 +21°C° 0 mm 3 mps 758 mmHg 84%
    07:00 +24°C° 0 mm 3 mps 758 mmHg 79%
    08:00 +25°C° 0 mm 3 mps 758 mmHg 74%
    09:00 +27°C° 0 mm 3 mps 758 mmHg 66%
    10:00 +29°C° 0 mm 3 mps 758 mmHg 57%
    11:00 +31°C° 0 mm 3 mps 758 mmHg 49%
    12:00 +33°C° 0 mm 3 mps 757 mmHg 47%
    13:00 +33°C° 0 mm 3 mps 757 mmHg 45%
    14:00 +33°C° 0 mm 3 mps 756 mmHg 43%
    15:00 +33°C° 0 mm 3 mps 756 mmHg 45%
    16:00 +33°C° 0 mm 3 mps 756 mmHg 46%
    17:00 +31°C° 0 mm 3 mps 755 mmHg 48%
    18:00 +29°C° 0 mm 3 mps 756 mmHg 53%
    19:00 +28°C° 0 mm 3 mps 756 mmHg 59%
    20:00 +26°C° 0 mm 4 mps 757 mmHg 65%
    21:00 +26°C° 0 mm 4 mps 757 mmHg 67%
    22:00 +25°C° 0 mm 4 mps 757 mmHg 70%
    23:00 +25°C° 0 mm 4 mps 757 mmHg 73%

    Tomorrow, 26 March, Sunday

    Time Temperature Precipitation Wind Pressure Humidity
    00:00 +24°C° 0 mm 3 mps 757 mmHg 75%
    01:00 +24°C° 0 mm 3 mps 757 mmHg 76%
    02:00 +22°C° 0 mm 3 mps 757 mmHg 78%
    03:00 +22°C° 0 mm 3 mps 757 mmHg 78%
    04:00 +22°C° 0 mm 3 mps 757 mmHg 78%
    05:00 +21°C° 0 mm 3 mps 757 mmHg 78%
    06:00 +22°C° 0 mm 3 mps 757 mmHg 75%
    07:00 +23°C° 0 mm 4 mps 758 mmHg 71%
    08:00 +25°C° 0 mm 4 mps 758 mmHg 68%
    09:00 +27°C° 0 mm 4 mps 758 mmHg 62%
    10:00 +29°C° 0 mm 4 mps 758 mmHg 55%
    11:00 +32°C° 0 mm 4 mps 758 mmHg 49%
    12:00 +33°C° 0 mm 4 mps 757 mmHg 46%
    13:00 +34°C° 0 mm 4 mps 756 mmHg 43%
    14:00 +35°C° 0 mm 3 mps 756 mmHg 40%
    15:00 +34°C° 0 mm 4 mps 755 mmHg 42%
    16:00 +34°C° 0 mm 4 mps 755 mmHg 44%
    17:00 +33°C° 0 mm 4 mps 755 mmHg 47%
    18:00 +30°C° 0 mm 4 mps 755 mmHg 52%
    19:00 +29°C° 0 mm 4 mps 756 mmHg 57%
    20:00 +27°C° 0 mm 4 mps 756 mmHg 63%
    21:00 +26°C° 0 mm 4 mps 757 mmHg 65%
    22:00 +26°C° 0 mm 4 mps 757 mmHg 66%
    23:00 +25°C° 0 mm 4 mps 758 mmHg 68%

    Day after tomorrow, 27 March, Monday

    Time Temperature Precipitation Wind Pressure Humidity
    00:00 +25°C° 0 mm 4 mps 757 mmHg 69%
    01:00 +24°C° 0 mm 3 mps 757 mmHg 71%
    02:00 +24°C° 0 mm 3 mps 757 mmHg 72%
    03:00 +22°C° 0 mm 3 mps 757 mmHg 74%
    04:00 +22°C° 0 mm 3 mps 757 mmHg 75%
    05:00 +22°C° 0 mm 3 mps 757 mmHg 76%
    06:00 +24°C° 0 mm 3 mps 758 mmHg 74%
    07:00 +25°C° 0 mm 4 mps 758 mmHg 71%
    08:00 +25°C° 0 mm 5 mps 759 mmHg 68%
    09:00 +28°C° 0 mm 4 mps 759 mmHg 61%
    10:00 +30°C° 0 mm 4 mps 759 mmHg 54%
    11:00 +33°C° 0 mm 4 mps 759 mmHg 47%
    12:00 +34°C° 0 mm 4 mps 759 mmHg 45%
    13:00 +35°C° 0 mm 4 mps 758 mmHg 43%
    14:00 +36°C° 0 mm 4 mps 757 mmHg 40%
    15:00 +35°C° 0 mm 4 mps 757 mmHg 43%
    16:00 +34°C° 0 mm 5 mps 757 mmHg 45%
    17:00 +34°C° 0 mm 5 mps 757 mmHg 47%
    18:00 +32°C° 0 mm 5 mps 757 mmHg 52%
    19:00 +29°C° 0 mm 5 mps 758 mmHg 57%
    20:00 +28°C° 0 mm 5 mps 758 mmHg 62%
    21:00 +27°C° 0 mm 5 mps 759 mmHg 64%
    22:00 +27°C° 0 mm 5 mps 759 mmHg 65%
    23:00 +26°C° 0 mm 4 mps 759 mmHg 66%

    28 March, Tuesday

    Time Temperature Precipitation Wind Pressure Humidity
    00:00 +26°C° 0 mm 5 mps 759 mmHg 68%
    01:00 +25°C° 0 mm 5 mps 759 mmHg 70%
    02:00 +25°C° 0 mm 5 mps 759 mmHg 71%
    03:00 +25°C° 0.1 mm 5 mps 759 mmHg 74%
    04:00 +23°C° 0.1 mm 5 mps 759 mmHg 76%
    05:00 +23°C° 0.1 mm 5 mps 760 mmHg 78%
    06:00 +23°C° 0.1 mm 5 mps 760 mmHg 78%
    07:00 +24°C° 0.1 mm 6 mps 761 mmHg 78%
    08:00 +24°C° 0.1 mm 6 mps 761 mmHg 77%
    09:00 +27°C° 0 mm 6 mps 761 mmHg 69%
    10:00 +29°C° 0 mm 6 mps 761 mmHg 61%
    11:00 +32°C° 0 mm 6 mps 761 mmHg 53%
    12:00 +33°C° 0 mm 5 mps 761 mmHg 51%
    13:00 +34°C° 0 mm 5 mps 760 mmHg 48%
    14:00 +34°C° 0 mm 5 mps 759 mmHg 45%
    15:00 +34°C° 0 mm 5 mps 759 mmHg 46%
    16:00 +33°C° 0 mm 6 mps 759 mmHg 47%
    17:00 +33°C° 0 mm 6 mps 758 mmHg 48%
    18:00 +30°C° 0 mm 6 mps 759 mmHg 51%
    19:00 +29°C° 0 mm 6 mps 759 mmHg 54%
    20:00 +28°C° 0 mm 6 mps 760 mmHg 56%
    21:00 +27°C° 0 mm 6 mps 760 mmHg 57%
    22:00 +27°C° 0 mm 6 mps 760 mmHg 58%
    23:00 +26°C° 0 mm 6 mps 760 mmHg 59%

    29 March, Wednesday

    Time Temperature Precipitation Wind Pressure Humidity
    00:00 +26°C° 0 mm 6 mps 760 mmHg 60%
    01:00 +24°C° 0 mm 6 mps 760 mmHg 62%
    02:00 +23°C° 0 mm 6 mps 760 mmHg 64%
    03:00 +23°C° 0 mm 6 mps 760 mmHg 66%
    04:00 +22°C° 0 mm 6 mps 760 mmHg 68%
    05:00 +22°C° 0 mm 6 mps 759 mmHg 70%
    06:00 +22°C° 0 mm 6 mps 760 mmHg 69%
    07:00 +22°C° 0 mm 7 mps 760 mmHg 69%
    08:00 +23°C° 0 mm 7 mps 760 mmHg 68%
    09:00 +26°C° 0 mm 7 mps 760 mmHg 62%
    10:00 +28°C° 0 mm 7 mps 760 mmHg 56%
    11:00 +30°C° 0 mm 6 mps 759 mmHg 51%
    12:00 +32°C° 0 mm 6 mps 758 mmHg 48%
    13:00 +33°C° 0 mm 6 mps 757 mmHg 45%
    14:00 +34°C° 0 mm 6 mps 757 mmHg 42%
    15:00 +34°C° 0 mm 6 mps 756 mmHg 43%
    16:00 +34°C° 0 mm 6 mps 756 mmHg 44%
    17:00 +33°C° 0 mm 6 mps 755 mmHg 45%
    18:00 +32°C° 0 mm 6 mps 755 mmHg 47%
    19:00 +30°C° 0 mm 6 mps 755 mmHg 50%
    20:00 +29°C° 0 mm 6 mps 755 mmHg 52%
    21:00 +29°C° 0 mm 7 mps 755 mmHg 53%
    22:00 +28°C° 0 mm 7 mps 755 mmHg 53%
    23:00 +28°C° 0 mm 8 mps 755 mmHg 54%

    30 March, Thursday

    Time Temperature Precipitation Wind Pressure Humidity
    00:00 +27°C° 0 mm 7 mps 754 mmHg 53%
    01:00 +27°C° 0 mm 7 mps 754 mmHg 52%
    02:00 +27°C° 0 mm 7 mps 754 mmHg 52%
    03:00 +26°C° 0.1 mm 7 mps 754 mmHg 54%
    04:00 +26°C° 0.1 mm 6 mps 754 mmHg 56%
    05:00 +24°C° 0.1 mm 6 mps 754 mmHg 58%
    06:00 +24°C° 0.3 mm 6 mps 755 mmHg 62%
    07:00 +24°C° 0.3 mm 6 mps 755 mmHg 65%
    08:00 +24°C° 0.3 mm 6 mps 756 mmHg 68%
    09:00 +26°C° 1 mm 6 mps 756 mmHg 66%
    10:00 +27°C° 1 mm 5 mps 756 mmHg 64%
    11:00 +28°C° 1 mm 5 mps 757 mmHg 63%
    12:00 +28°C° 1.2 mm 5 mps 756 mmHg 64%
    13:00 +28°C° 1.2 mm 4 mps 756 mmHg 66%
    14:00 +28°C° 1.2 mm 3 mps 755 mmHg 67%
    15:00 +27°C° 1.6 mm 3 mps 756 mmHg 74%
    16:00 +25°C° 1.6 mm 3 mps 756 mmHg 81%
    17:00 +24°C° 1.6 mm 3 mps 756 mmHg 87%
    18:00 +24°C° 0.3 mm 3 mps 756 mmHg 88%
    19:00 +24°C° 0.3 mm 3 mps 757 mmHg 89%
    20:00 +24°C° 0.3 mm 2 mps 757 mmHg 90%
    21:00 +24°C° 0.1 mm 2 mps 757 mmHg 90%
    22:00 +24°C° 0.1 mm 2 mps 757 mmHg 89%
    23:00 +24°C° 0.1 mm 2 mps 757 mmHg 89%
    Show more